This demonstration page uses our WeatherBlox Daily Observations layout. Learn more.

39.92423, -83.80882

Hourly Observations for June 20, 2017

Temp ( °F °C ) Dew Point ( °F °C ) Humidity (%) Winds ( mph kmh ) Pressure ( in mb ) Visibility ( mi km ) Precip ( " mm )
12:58 am 00:58 Mostly Clear 61 15.9 59 15.2 96 96 E 3 6 29.98 1015 10 16.0934 0 0
1:58 am 01:58 Mostly Cloudy 60 15.5 59 15.1 97 97 Calm 29.96 1015 10 16.0934 0 0
2:58 am 02:58 Partly Cloudy 58 14.7 58 14.7 100 100 SSW 3 6 29.96 1015 10 16.0934 0 0
3:58 am 03:58 Clear 57 14 57 14 100 100 SW 6 9 29.96 1015 10 16.0934 0 0
4:58 am 04:58 Clear 58 14.4 58 14.3 99 99 SW 7 11 29.98 1015 10 16.0934 0 0
5:58 am 05:58 Mostly Clear 58 14.7 56 13.6 93 93 WSW 9 15 29.99 1016 10 16.0934 0 0
6:58 am 06:58 Sunny 60 15.4 56 13.3 87 87 WSW 5 7 30.01 1016 10 16.0934 0 0
7:58 am 07:58 Sunny 65 18.1 56 13.1 73 73 W 3 6 30.03 1017 10 16.0934 0 0
8:58 am 08:58 Sunny 68 20.2 55 12.7 62 62 W 9 15 30.03 1017 10 16.0934 0 0
9:58 am 09:58 Sunny 71 21.5 53 11.7 54 54 W 12 19 30.04 1017 10 16.0934 0 0
10:58 am 10:58 Sunny 74 23.2 53 11.7 48 48 W 9 15 30.03 1017 10 16.0934 0 0
11:58 am 11:58 Sunny 76 24.2 54 12 47 47 W 12 19 30.03 1017 10 16.0934 0 0
12:58 pm 12:58 Mostly Sunny 78 25.5 54 12.1 43 43 WSW 16 26 30.01 1016 10 16.0934 0 0
1:09 pm 13:09 Sunny 79 26 54 12 42 42 W 15 24 30.01 1016 10 16.0934 0 0
1:14 pm 13:14 Mostly Sunny 79 26 54 12 42 42 WSW 15 24 30.01 1016 10 16.0934 0 0
1:58 pm 13:58 Partly Cloudy with Light Drizzle 80 26.4 53 11.8 40 40 SW 9 15 30.01 1016 10 16.0934 0 0.0254
2:03 pm 14:03 Mostly Sunny 79 26 52 11 39 39 W 13 20 30.01 1016 10 16.0934 0 0
2:16 pm 14:16 Mostly Sunny 79 26 52 11 39 39 WSW 15 24 30 1016 10 16.0934 0 0
2:58 pm 14:58 Mostly Cloudy 80 26.5 52 11.3 39 39 WNW 9 15 29.98 1015 10 16.0934 0 0.0254
3:58 pm 15:58 Mostly Sunny 82 27.5 51 10.6 35 35 W 13 20 29.98 1015 10 16.0934 0 0
4:58 pm 16:58 Mostly Sunny 82 28 53 11.5 36 36 SSW 12 19 29.96 1015 10 16.0934 0 0
5:58 pm 17:58 Partly Cloudy 80 26.9 51 10.3 35 35 WSW 10 17 29.96 1014 10 16.0934 0 0
6:58 pm 18:58 Mostly Sunny 82 27.5 52 10.9 36 36 WSW 10 17 29.94 1014 10 16.0934 0 0
7:58 pm 19:58 Sunny 79 26.1 51 10.8 38 38 WSW 10 17 29.94 1014 10 16.0934 0 0
8:58 pm 20:58 Sunny 72 22 54 12.4 55 55 SSW 8 13 29.96 1014 10 16.0934 0 0
9:58 pm 21:58 Partly Cloudy 70 20.9 54 12.3 58 58 SSW 6 9 29.96 1014 10 16.0934 0 0
10:58 pm 22:58 Mostly Cloudy 69 20.6 55 12.6 60 60 SSW 5 7 29.96 1015 10 16.0934 0 0
11:58 pm 23:58 Mostly Cloudy 71 21.8 55 12.7 56 56 WNW 13 20 29.99 1016 10 16.0934 0 0

Powered by AerisWeather